Location: STAR School
(35.3054°N, 111.2976°W)
Time: 00:25:02
(UTC-07:00)

Vanguard 1 - Pass Details

Date: 31 October 2019
Orbit: 652 x 3831 km, 34.2° (Epoch: 13 November)

Event Time Altitude Azimuth Distance (km) Brightness Sun altitude
Rises 21:42:12 0° 279° (W) 4,215 13.9 -51.0°
Reaches altitude 10° 21:44:42 10° 272° (W) 3,542 13.3 -51.5°
Enters shadow 21:48:36 29° 253° (WSW) 2,794 12.4 -52.2°
